| time (UTC) | temp F | wind direction | speed MPH | gust MPH | rain 1hr in | rain 24hr in | rain mn in | humidity % | barometer mb |
| 20260905081822 | 49 | 189 | 10.0 | 14.0 | 0.00 | 0.00 | 0.00 | 100 | |
| 20260905081622 | 49 | 168 | 11.0 | 18.0 | 0.00 | 0.00 | 0.00 | 100 | |
| 20260905081422 | 49 | 157 | 11.0 | 18.0 | 0.00 | 0.00 | 0.00 | 100 | |
| 20260905081220 | 49 | 163 | 11.0 | 16.0 | 0.00 | 0.00 | 0.00 | 100 | |
| 20260905081020 | 49 | 131 | 11.0 | 15.0 | 0.00 | 0.00 | 0.00 | 100 | |
| 20260905080820 | 49 | 174 | 12.0 | 18.0 | 0.00 | 0.00 | 0.00 | 100 | |
| 20260905080620 | 49 | 167 | 13.0 | 18.0 | 0.00 | 0.00 | 0.00 | 100 | |
| 20260905080420 | 49 | 160 | 13.0 | 16.0 | 0.00 | 0.00 | 0.00 | 100 | |
| 20260905080220 | 49 | 165 | 12.0 | 18.0 | 0.00 | 0.00 | 0.00 | 100 | |
| 20260905080020 | 49 | 187 | 12.0 | 19.0 | 0.00 | 0.00 | 0.00 | 100 | |
| 20260905075820 | 49 | 209 | 11.0 | 19.0 | 0.00 | 0.00 | 0.00 | 100 | |
| 20260905075612 | 49 | 148 | 11.0 | 17.0 | 0.00 | 0.00 | 0.00 | 100 | |
| 20260905075412 | 49 | 153 | 11.0 | 16.0 | 0.00 | 0.00 | 0.00 | 100 | |
| 20260905075210 | 49 | 166 | 11.0 | 16.0 | 0.00 | 0.00 | 0.00 | 100 | |
| 20260905075010 | 49 | 180 | 9.0 | 14.0 | 0.00 | 0.00 | 0.00 | 100 | |
| 20260905074810 | 49 | 185 | 10.0 | 14.0 | 0.00 | 0.00 | 0.00 | 100 | |
| 20260905074610 | 49 | 194 | 10.0 | 16.0 | 0.00 | 0.00 | 0.00 | 100 | |
| 20260905074410 | 48 | 184 | 11.0 | 20.0 | 0.00 | 0.00 | 0.00 | 100 | |
| 20260905074210 | 48 | 207 | 12.0 | 20.0 | 0.00 | 0.00 | 0.00 | 100 | |
| 20260905074010 | 48 | 145 | 12.0 | 17.0 | 0.00 | 0.00 | 0.00 | 100 | |
| 20260905073810 | 48 | 136 | 10.0 | 13.0 | 0.00 | 0.00 | 0.00 | 100 | |
| 20260905073610 | 48 | 140 | 10.0 | 15.0 | 0.00 | 0.00 | 0.00 | 100 | |
| 20260905073410 | 48 | 139 | 10.0 | 16.0 | 0.00 | 0.00 | 0.00 | 100 | |
| 20260905073208 | 48 | 138 | 10.0 | 15.0 | 0.00 | 0.00 | 0.00 | 100 | |
| 20260905073008 | 48 | 179 | 10.0 | 15.0 | 0.00 | 0.00 | 0.00 | 100 | |
| 20260905072808 | 48 | 167 | 10.0 | 14.0 | 0.00 | 0.00 | 0.00 | 100 | |
| 20260905072608 | 48 | 127 | 10.0 | 14.0 | 0.00 | 0.00 | 0.00 | 100 | |
| 20260905072408 | 48 | 170 | 10.0 | 16.0 | 0.00 | 0.00 | 0.00 | 100 | |
| 20260905072208 | 48 | 186 | 12.0 | 18.0 | 0.00 | 0.00 | 0.00 | 100 | |
| 20260905072008 | 48 | 179 | 12.0 | 18.0 | 0.00 | 0.00 | 0.00 | 100 | |
| 20260905071808 | 48 | 146 | 11.0 | 16.0 | 0.00 | 0.00 | 0.00 | 100 | |
| 20260905071608 | 48 | 183 | 12.0 | 16.0 | 0.00 | 0.00 | 0.00 | 100 | |
| 20260905071407 | 48 | 197 | 11.0 | 16.0 | 0.00 | 0.00 | 0.00 | 100 | |
| 20260905071205 | 48 | 206 | 11.0 | 15.0 | 0.00 | 0.00 | 0.00 | 100 | |
| 20260905071005 | 48 | 227 | 12.0 | 19.0 | 0.00 | 0.00 | 0.00 | 100 | |
| 20260905070805 | 49 | 198 | 10.0 | 15.0 | 0.00 | 0.00 | 0.00 | 100 | |
| 20260905070605 | 49 | 190 | 10.0 | 14.0 | 0.00 | 0.00 | 0.00 | 100 | |
| 20260905070405 | 49 | 172 | 11.0 | 17.0 | 0.00 | 0.00 | 0.00 | 100 | |
| 20260905070205 | 49 | 176 | 12.0 | 17.0 | 0.00 | 0.00 | 0.00 | 100 | |
| 20260905070006 | 49 | 173 | 11.0 | 21.0 | 0.00 | 0.00 | 0.00 | 100 | |
| 20260905065806 | 49 | 146 | 10.0 | 18.0 | 0.00 | 0.00 | 0.00 | 100 | |
| 20260905065606 | 49 | 166 | 10.0 | 14.0 | 0.00 | 0.00 | 0.00 | 100 | |
| 20260905065406 | 49 | 177 | 10.0 | 13.0 | 0.00 | 0.00 | 0.00 | 100 | |
| 20260905065203 | 49 | 171 | 10.0 | 13.0 | 0.00 | 0.00 | 0.00 | 100 | |
| 20260905065001 | 49 | 150 | 11.0 | 17.0 | 0.00 | 0.00 | 0.00 | 100 | |
| 20260905064801 | 49 | 164 | 11.0 | 17.0 | 0.00 | 0.00 | 0.00 | 100 | |
| 20260905064601 | 49 | 186 | 11.0 | 18.0 | 0.00 | 0.00 | 0.00 | 100 | |
| 20260905064401 | 49 | 187 | 11.0 | 18.0 | 0.00 | 0.00 | 0.00 | 100 | |
| 20260905064200 | 49 | 154 | 10.0 | 16.0 | 0.00 | 0.00 | 0.00 | 100 | |
| 20260905064001 | 49 | 162 | 10.0 | 16.0 | 0.00 | 0.00 | 0.00 | 100 | |
| 20260905063801 | 49 | 180 | 10.0 | 14.0 | 0.00 | 0.00 | 0.00 | 100 | |
| 20260905063601 | 49 | 196 | 10.0 | 15.0 | 0.00 | 0.00 | 0.00 | 100 | |
| 20260905063401 | 49 | 180 | 8.0 | 13.0 | 0.00 | 0.00 | 0.00 | 100 | |
| 20260905063159 | 49 | 230 | 10.0 | 18.0 | 0.00 | 0.00 | 0.00 | 100 | |
| 20260905062959 | 50 | 175 | 11.0 | 22.0 | 0.00 | 0.00 | 0.00 | 100 | |
| 20260905062759 | 50 | 121 | 10.0 | 14.0 | 0.00 | 0.00 | 0.00 | 100 | |
| 20260905062559 | 50 | 126 | 10.0 | 14.0 | 0.00 | 0.00 | 0.00 | 100 | |
| 20260905062359 | 50 | 155 | 10.0 | 14.0 | 0.00 | 0.00 | 0.00 | 100 | |
| 20260905062159 | 50 | 162 | 10.0 | 15.0 | 0.00 | 0.00 | 0.00 | 100 | |
| 20260905061958 | 50 | 199 | 11.0 | 17.0 | 0.00 | 0.00 | 0.00 | 100 | |
| 20260905061758 | 50 | 174 | 10.0 | 14.0 | 0.00 | 0.00 | 0.00 | 100 | |
| 20260905061558 | 50 | 184 | 10.0 | 17.0 | 0.00 | 0.00 | 0.00 | 100 | |
| 20260905061358 | 50 | 140 | 10.0 | 14.0 | 0.00 | 0.00 | 0.00 | 100 | |
| 20260905061156 | 50 | 161 | 11.0 | 17.0 | 0.00 | 0.00 | 0.00 | 100 | |
| 20260905060956 | 50 | 144 | 11.0 | 16.0 | 0.00 | 0.00 | 0.00 | 100 | |
| 20260905060757 | 50 | 164 | 11.0 | 17.0 | 0.00 | 0.00 | 0.00 | 100 | |
| 20260905060556 | 50 | 158 | 11.0 | 15.0 | 0.00 | 0.00 | 0.00 | 100 | |
| 20260905060356 | 50 | 172 | 13.0 | 19.0 | 0.00 | 0.00 | 0.00 | 100 | |
| 20260905060156 | 50 | 198 | 14.0 | 22.0 | 0.00 | 0.00 | 0.00 | 100 | |
| 20260905055956 | 50 | 205 | 13.0 | 28.0 | 0.00 | 0.00 | 0.00 | 100 | |
| 20260905055756 | 50 | 187 | 13.0 | 28.0 | 0.00 | 0.00 | 0.00 | 100 | |
| 20260905055556 | 51 | 193 | 13.0 | 19.0 | 0.00 | 0.00 | 0.00 | 100 | |
| 20260905055356 | 51 | 204 | 14.0 | 17.0 | 0.00 | 0.00 | 0.00 | 100 | |
| 20260905055154 | 51 | 204 | 12.0 | 17.0 | 0.00 | 0.00 | 0.00 | 100 | |
| 20260905054954 | 51 | 213 | 11.0 | 17.0 | 0.00 | 0.00 | 0.00 | 100 | |
| 20260905054754 | 51 | 169 | 11.0 | 16.0 | 0.00 | 0.00 | 0.00 | 100 | |
| 20260905054554 | 51 | 133 | 8.0 | 16.0 | 0.00 | 0.00 | 0.00 | 100 | |
| 20260905054354 | 51 | 177 | 9.0 | 18.0 | 0.00 | 0.00 | 0.00 | 100 | |
| 20260905054154 | 51 | 184 | 8.0 | 14.0 | 0.00 | 0.00 | 0.00 | 100 | |
| 20260905053954 | 51 | 147 | 8.0 | 11.0 | 0.00 | 0.00 | 0.00 | 100 | |
| 20260905053753 | 51 | 178 | 8.0 | 13.0 | 0.00 | 0.00 | 0.00 | 100 | |
| 20260905053554 | 51 | 173 | 8.0 | 12.0 | 0.00 | 0.00 | 0.00 | 100 | |
| 20260905053354 | 51 | 170 | 9.0 | 15.0 | 0.00 | 0.00 | 0.00 | 100 | |
| 20260905053152 | 51 | 176 | 9.0 | 15.0 | 0.00 | 0.00 | 0.00 | 100 | |
| 20260905052952 | 51 | 205 | 9.0 | 14.0 | 0.00 | 0.00 | 0.00 | 100 | |
| 20260905052752 | 51 | 234 | 8.0 | 12.0 | 0.00 | 0.00 | 0.00 | 100 | |
| 20260905052552 | 51 | 180 | 7.0 | 12.0 | 0.00 | 0.00 | 0.00 | 100 | |
| 20260905052352 | 51 | 255 | 6.0 | 10.0 | 0.00 | 0.00 | 0.00 | 100 | |
| 20260905052143 | 51 | 199 | 5.0 | 10.0 | 0.00 | 0.00 | 0.00 | 100 | |
| 20260905051943 | 52 | 183 | 6.0 | 10.0 | 0.00 | 0.00 | 0.00 | 100 | |
| 20260905051743 | 52 | 216 | 6.0 | 10.0 | 0.00 | 0.00 | 0.00 | 100 | |
| 20260905051543 | 52 | 225 | 4.0 | 7.0 | 0.00 | 0.00 | 0.00 | 100 | |
| 20260905051343 | 52 | 258 | 5.0 | 10.0 | 0.00 | 0.00 | 0.00 | 100 | |
| 20260905051141 | 52 | 284 | 6.0 | 18.0 | 0.00 | 0.00 | 0.00 | 100 | |
| 20260905050941 | 52 | 224 | 3.0 | 6.0 | 0.00 | 0.00 | 0.00 | 100 | |
| 20260905050741 | 52 | 290 | 2.0 | 6.0 | 0.00 | 0.00 | 0.00 | 100 | |
| 20260905050540 | 52 | 340 | 4.0 | 10.0 | 0.00 | 0.00 | 0.00 | 100 | |
| 20260905050340 | 52 | 267 | 5.0 | 10.0 | 0.00 | 0.00 | 0.00 | 100 | |
| 20260905050140 | 52 | 197 | 7.0 | 12.0 | 0.00 | 0.00 | 0.00 | 100 | |
| 20260905045940 | 52 | 195 | 9.0 | 17.0 | 0.00 | 0.00 | 0.00 | 100 | |
| 20260905045740 | 52 | 150 | 8.0 | 12.0 | 0.00 | 0.00 | 0.00 | 100 | |
| 20260905045540 | 53 | 184 | 10.0 | 14.0 | 0.00 | 0.00 | 0.00 | 100 | |
| 20260905045340 | 53 | 183 | 10.0 | 13.0 | 0.00 | 0.00 | 0.00 | 100 | |
| 20260905045138 | 53 | 150 | 8.0 | 12.0 | 0.00 | 0.00 | 0.00 | 100 | |
| 20260905044938 | 53 | 206 | 7.0 | 11.0 | 0.00 | 0.00 | 0.00 | 100 | |
| 20260905044740 | 53 | 219 | 7.0 | 11.0 | 0.00 | 0.00 | 0.00 | 100 | |
| 20260905044538 | 53 | 204 | 7.0 | 9.0 | 0.00 | 0.00 | 0.00 | 100 | |
| 20260905044338 | 52 | 238 | 5.0 | 9.0 | 0.00 | 0.00 | 0.00 | 100 | |
| 20260905044138 | 52 | 215 | 4.0 | 9.0 | 0.00 | 0.00 | 0.00 | 100 | |
| 20260905043938 | 52 | 263 | 5.0 | 8.0 | 0.00 | 0.00 | 0.00 | 100 | |
| 20260905043738 | 52 | 235 | 6.0 | 11.0 | 0.00 | 0.00 | 0.00 | 100 | |
| 20260905043538 | 52 | 213 | 6.0 | 12.0 | 0.00 | 0.00 | 0.00 | 100 | |
| 20260905043338 | 52 | 174 | 7.0 | 10.0 | 0.00 | 0.00 | 0.00 | 100 | |
| 20260905043136 | 52 | 222 | 8.0 | 14.0 | 0.00 | 0.00 | 0.00 | 100 | |
| 20260905042936 | 52 | 193 | 6.0 | 12.0 | 0.00 | 0.00 | 0.00 | 100 | |
| 20260905042736 | 52 | 183 | 6.0 | 10.0 | 0.00 | 0.00 | 0.00 | 100 | |
| 20260905042536 | 52 | 205 | 6.0 | 10.0 | 0.00 | 0.00 | 0.00 | 100 | |
| 20260905042335 | 52 | 211 | 5.0 | 8.0 | 0.00 | 0.00 | 0.00 | 100 | |
| 20260905042135 | 52 | 267 | 6.0 | 12.0 | 0.00 | 0.00 | 0.00 | 100 | |
| 20260905041935 | 52 | 235 | 6.0 | 12.0 | 0.00 | 0.00 | 0.00 | 100 | |
| 20260905041735 | 52 | 237 | 6.0 | 12.0 | 0.00 | 0.00 | 0.00 | 100 | |
| 20260905041535 | 52 | 245 | 6.0 | 10.0 | 0.00 | 0.00 | 0.00 | 100 | |
| 20260905041335 | 52 | 255 | 6.0 | 9.0 | 0.00 | 0.00 | 0.00 | 100 | |
| 20260905041134 | 52 | 212 | 5.0 | 10.0 | 0.00 | 0.00 | 0.00 | 100 | |
| 20260905040934 | 52 | 196 | 6.0 | 10.0 | 0.00 | 0.00 | 0.00 | 100 | |
| 20260905040734 | 53 | 182 | 9.0 | 12.0 | 0.00 | 0.00 | 0.00 | 100 | |
| 20260905040534 | 53 | 201 | 11.0 | 16.0 | 0.00 | 0.00 | 0.00 | 100 | |
| 20260905040334 | 53 | 152 | 12.0 | 17.0 | 0.00 | 0.00 | 0.00 | 100 | |
| 20260905040133 | 53 | 196 | 11.0 | 15.0 | 0.00 | 0.00 | 0.00 | 100 | |
| 20260905035933 | 53 | 200 | 10.0 | 18.0 | 0.00 | 0.00 | 0.00 | 100 | |
| 20260905035733 | 53 | 198 | 11.0 | 17.0 | 0.00 | 0.00 | 0.00 | 100 | |
| 20260905035533 | 53 | 213 | 9.0 | 13.0 | 0.00 | 0.00 | 0.00 | 100 | |
| 20260905035333 | 52 | 249 | 8.0 | 15.0 | 0.00 | 0.00 | 0.00 | 100 | |
| 20260905035131 | 52 | 198 | 9.0 | 15.0 | 0.00 | 0.00 | 0.00 | 100 | |
| 20260905034931 | 52 | 202 | 8.0 | 12.0 | 0.00 | 0.00 | 0.00 | 100 | |
| 20260905034731 | 52 | 205 | 7.0 | 10.0 | 0.00 | 0.00 | 0.00 | 100 | |
| 20260905034531 | 52 | 220 | 5.0 | 9.0 | 0.00 | 0.00 | 0.00 | 100 | |
| 20260905034331 | 53 | 240 | 6.0 | 8.0 | 0.00 | 0.00 | 0.00 | 100 | |
| 20260905034131 | 53 | 219 | 4.0 | 6.0 | 0.00 | 0.00 | 0.00 | 100 | |
| 20260905033931 | 53 | 52 | 3.0 | 5.0 | 0.00 | 0.00 | 0.00 | 100 | |
| 20260905033731 | 53 | 321 | 3.0 | 6.0 | 0.00 | 0.00 | 0.00 | 100 | |
| 20260905033531 | 53 | 229 | 4.0 | 8.0 | 0.00 | 0.00 | 0.00 | 100 | |
| 20260905033331 | 53 | 252 | 3.0 | 6.0 | 0.00 | 0.00 | 0.00 | 100 | |
| 20260905033129 | 53 | 275 | 4.0 | 7.0 | 0.00 | 0.00 | 0.00 | 100 | |
| 20260905032929 | 53 | 252 | 4.0 | 6.0 | 0.00 | 0.00 | 0.00 | 100 | |
| 20260905032729 | 53 | 265 | 4.0 | 10.0 | 0.00 | 0.00 | 0.00 | 100 | |
| 20260905032529 | 53 | 270 | 2.0 | 4.0 | 0.00 | 0.00 | 0.00 | 100 | |
| 20260905032329 | 53 | 282 | 4.0 | 8.0 | 0.00 | 0.00 | 0.00 | 100 | |
| 20260905032129 | 53 | 224 | 5.0 | 8.0 | 0.00 | 0.00 | 0.00 | 100 | |
| 20260905031928 | 53 | 270 | 4.0 | 8.0 | 0.00 | 0.00 | 0.00 | 100 | |
| 20260905031728 | 53 | 283 | 4.0 | 8.0 | 0.00 | 0.00 | 0.00 | 100 | |
| 20260905031528 | 53 | 278 | 4.0 | 8.0 | 0.00 | 0.00 | 0.00 | 100 | |
| 20260905031328 | 53 | 247 | 4.0 | 8.0 | 0.00 | 0.00 | 0.00 | 100 | |
| 20260905031126 | 53 | 253 | 4.0 | 6.0 | 0.00 | 0.00 | 0.00 | 100 | |
| 20260905030926 | 53 | 238 | 4.0 | 6.0 | 0.00 | 0.00 | 0.00 | 100 | |
| 20260905030726 | 53 | 204 | 4.0 | 8.0 | 0.00 | 0.00 | 0.00 | 100 | |
| 20260905030526 | 53 | 239 | 4.0 | 8.0 | 0.00 | 0.00 | 0.00 | 100 | |
| 20260905030326 | 53 | 244 | 4.0 | 6.0 | 0.00 | 0.00 | 0.00 | 100 | |
| 20260905030127 | 53 | 290 | 5.0 | 9.0 | 0.00 | 0.00 | 0.00 | 100 | |
| 20260905025926 | 53 | 286 | 6.0 | 11.0 | 0.00 | 0.00 | 0.00 | 100 | |
| 20260905025726 | 53 | 270 | 6.0 | 11.0 | 0.00 | 0.00 | 0.00 | 100 | |
| 20260905025526 | 53 | 284 | 5.0 | 10.0 | 0.00 | 0.00 | 0.00 | 100 | |
| 20260905025326 | 53 | 203 | 6.0 | 11.0 | 0.00 | 0.00 | 0.00 | 100 | |
| 20260905025124 | 53 | 195 | 5.0 | 11.0 | 0.00 | 0.00 | 0.00 | 100 | |
| 20260905024924 | 53 | 261 | 7.0 | 11.0 | 0.00 | 0.00 | 0.00 | 100 | |
| 20260905024725 | 53 | 245 | 5.0 | 11.0 | 0.00 | 0.00 | 0.00 | 100 | |
| 20260905024517 | 53 | 274 | 4.0 | 6.0 | 0.00 | 0.00 | 0.00 | 100 | |
| 20260905024317 | 53 | 265 | 5.0 | 9.0 | 0.00 | 0.00 | 0.00 | 100 | |
| 20260905024115 | 53 | 201 | 6.0 | 10.0 | 0.00 | 0.00 | 0.00 | 100 | |
| 20260905023915 | 53 | 218 | 8.0 | 14.0 | 0.00 | 0.00 | 0.00 | 100 | |
| 20260905023715 | 53 | 240 | 8.0 | 16.0 | 0.00 | 0.00 | 0.00 | 100 | |
| 20260905023515 | 53 | 252 | 6.0 | 16.0 | 0.00 | 0.00 | 0.00 | 100 | |
| 20260905023315 | 53 | 258 | 5.0 | 10.0 | 0.00 | 0.00 | 0.00 | 100 | |
| 20260905023113 | 53 | 277 | 6.0 | 10.0 | 0.00 | 0.00 | 0.00 | 100 | |
| 20260905022913 | 53 | 270 | 4.0 | 6.0 | 0.00 | 0.00 | 0.00 | 100 | |
| 20260905022713 | 53 | 323 | 3.0 | 8.0 | 0.00 | 0.00 | 0.00 | 100 | |
| 20260905022513 | 53 | 280 | 4.0 | 11.0 | 0.00 | 0.00 | 0.00 | 100 | |
| 20260905022313 | 53 | 270 | 6.0 | 11.0 | 0.00 | 0.00 | 0.00 | 100 | |
| 20260905022113 | 53 | 171 | 7.0 | 11.0 | 0.00 | 0.00 | 0.00 | 100 | |
| 20260905021913 | 53 | 168 | 8.0 | 13.0 | 0.00 | 0.00 | 0.00 | 100 | |
| 20260905021713 | 53 | 195 | 9.0 | 13.0 | 0.00 | 0.00 | 0.00 | 100 | |
| 20260905021513 | 53 | 206 | 6.0 | 11.0 | 0.00 | 0.00 | 0.00 | 100 | |
| 20260905021313 | 53 | 244 | 6.0 | 10.0 | 0.00 | 0.00 | 0.00 | 100 | |
| 20260905021111 | 53 | 255 | 6.0 | 11.0 | 0.00 | 0.00 | 0.00 | 100 | |
| 20260905020911 | 53 | 243 | 5.0 | 13.0 | 0.00 | 0.00 | 0.00 | 100 | |
| 20260905020711 | 53 | 242 | 5.0 | 13.0 | 0.00 | 0.00 | 0.00 | 100 | |
| 20260905020510 | 53 | 324 | 3.0 | 6.0 | 0.00 | 0.00 | 0.00 | 100 | |
| 20260905020310 | 53 | 270 | 3.0 | 6.0 | 0.00 | 0.00 | 0.00 | 100 | |
| 20260905020110 | 53 | 248 | 4.0 | 6.0 | 0.00 | 0.00 | 0.00 | 100 | |
| 20260905015910 | 53 | 262 | 4.0 | 6.0 | 0.00 | 0.00 | 0.00 | 100 | |
| 20260905015710 | 53 | 202 | 3.0 | 6.0 | 0.00 | 0.00 | 0.00 | 100 | |
| 20260905015510 | 53 | 356 | 2.0 | 6.0 | 0.00 | 0.00 | 0.00 | 100 | |
| 20260905015310 | 53 | 21 | 2.0 | 6.0 | 0.00 | 0.00 | 0.00 | 100 | |
| 20260905015108 | 53 | 253 | 3.0 | 8.0 | 0.00 | 0.00 | 0.00 | 100 | |
| 20260905014908 | 53 | 289 | 4.0 | 8.0 | 0.00 | 0.00 | 0.00 | 100 | |
| 20260905014708 | 53 | 267 | 3.0 | 6.0 | 0.00 | 0.00 | 0.00 | 100 | |
| 20260905014508 | 53 | 247 | 4.0 | 9.0 | 0.00 | 0.00 | 0.00 | 100 | |
| 20260905014308 | 53 | 273 | 3.0 | 9.0 | 0.00 | 0.00 | 0.00 | 100 | |
| 20260905014108 | 53 | 263 | 2.0 | 4.0 | 0.00 | 0.00 | 0.00 | 100 | |
| 20260905013908 | 53 | 336 | 2.0 | 6.0 | 0.00 | 0.00 | 0.00 | 100 | |
| 20260905013708 | 53 | 326 | 3.0 | 6.0 | 0.00 | 0.00 | 0.00 | 100 | |
| 20260905013508 | 53 | 311 | 4.0 | 6.0 | 0.00 | 0.00 | 0.00 | 100 | |
| 20260905013308 | 53 | 354 | 5.0 | 11.0 | 0.00 | 0.00 | 0.00 | 100 | |
| 20260905013106 | 53 | 11 | 4.0 | 11.0 | 0.00 | 0.00 | 0.00 | 100 | |
| 20260905012906 | 53 | 25 | 5.0 | 8.0 | 0.00 | 0.00 | 0.00 | 100 | |
| 20260905012706 | 53 | 350 | 4.0 | 8.0 | 0.00 | 0.00 | 0.00 | 100 | |
| 20260905012506 | 53 | 0 | 4.0 | 6.0 | 0.00 | 0.00 | 0.00 | 100 | |
| 20260905012306 | 53 | 19 | 4.0 | 8.0 | 0.00 | 0.00 | 0.00 | 100 | |
| 20260905012105 | 53 | 37 | 4.0 | 8.0 | 0.00 | 0.00 | 0.00 | 100 | |
| 20260905011905 | 53 | 26 | 2.0 | 5.0 | 0.00 | 0.00 | 0.00 | 100 | |
| 20260905011705 | 53 | 55 | 5.0 | 12.0 | 0.00 | 0.00 | 0.00 | 100 | |
| 20260905011506 | 53 | 42 | 5.0 | 12.0 | 0.00 | 0.00 | 0.00 | 100 | |
| 20260905011306 | 53 | 34 | 6.0 | 14.0 | 0.00 | 0.00 | 0.00 | 100 | |
| 20260905011104 | 53 | 54 | 8.0 | 15.0 | 0.00 | 0.00 | 0.00 | 100 | |
| 20260905010904 | 54 | 43 | 8.0 | 16.0 | 0.00 | 0.00 | 0.00 | 100 | |
| 20260905010704 | 54 | 34 | 7.0 | 16.0 | 0.00 | 0.00 | 0.00 | 100 | |
| 20260905010504 | 54 | 38 | 6.0 | 10.0 | 0.00 | 0.00 | 0.00 | 100 | |
| 20260905010304 | 54 | 36 | 7.0 | 15.0 | 0.00 | 0.00 | 0.00 | 100 | |
| 20260905010103 | 54 | 41 | 10.0 | 15.0 | 0.00 | 0.00 | 0.00 | 100 | |
| 20260905005903 | 54 | 30 | 9.0 | 16.0 | 0.00 | 0.00 | 0.00 | 100 | |
| 20260905005703 | 54 | 28 | 9.0 | 14.0 | 0.00 | 0.00 | 0.00 | 100 | |
| 20260905005503 | 55 | 32 | 9.0 | 15.0 | 0.00 | 0.00 | 0.00 | 100 | |
| 20260905005306 | 55 | 33 | 9.0 | 15.0 | 0.00 | 0.00 | 0.00 | 100 | |
| 20260905005101 | 55 | 23 | 6.0 | 9.0 | 0.00 | 0.00 | 0.00 | 100 | |
| 20260905004901 | 55 | 13 | 7.0 | 11.0 | 0.00 | 0.00 | 0.00 | 100 | |
| 20260905004701 | 55 | 357 | 6.0 | 10.0 | 0.00 | 0.00 | 0.00 | 100 | |
| 20260905004501 | 55 | 40 | 9.0 | 15.0 | 0.00 | 0.00 | 0.00 | 100 | |
| 20260905004301 | 55 | 54 | 9.0 | 15.0 | 0.00 | 0.00 | 0.00 | 100 | |
| 20260905004101 | 55 | 34 | 9.0 | 15.0 | 0.00 | 0.00 | 0.00 | 100 | |
| 20260905003901 | 55 | 40 | 10.0 | 15.0 | 0.00 | 0.00 | 0.00 | 100 | |
| 20260905003701 | 55 | 38 | 9.0 | 14.0 | 0.00 | 0.00 | 0.00 | 100 | |
| 20260905003501 | 55 | 28 | 8.0 | 12.0 | 0.00 | 0.00 | 0.00 | 100 | |
| 20260905003301 | 55 | 10 | 7.0 | 12.0 | 0.00 | 0.00 | 0.00 | 100 | |
| 20260905003059 | 55 | 0 | 9.0 | 15.0 | 0.00 | 0.00 | 0.00 | 100 | |
| 20260905002859 | 55 | 30 | 9.0 | 15.0 | 0.00 | 0.00 | 0.00 | 100 | |
| 20260905002659 | 55 | 36 | 6.0 | 11.0 | 0.00 | 0.00 | 0.00 | 100 | |
| 20260905002459 | 55 | 48 | 8.0 | 12.0 | 0.00 | 0.00 | 0.00 | 100 | |
| 20260905002259 | 56 | 56 | 8.0 | 12.0 | 0.00 | 0.00 | 0.00 | 100 | |
| 20260905002059 | 56 | 44 | 7.0 | 12.0 | 0.00 | 0.00 | 0.00 | 100 | |
| 20260905001859 | 56 | 58 | 6.0 | 11.0 | 0.00 | 0.00 | 0.00 | 100 | |
| 20260905001659 | 56 | 49 | 8.0 | 14.0 | 0.00 | 0.00 | 0.00 | 100 | |
| 20260905001459 | 56 | 38 | 8.0 | 14.0 | 0.00 | 0.00 | 0.00 | 100 | |
| 20260905001259 | 56 | 29 | 7.0 | 10.0 | 0.00 | 0.00 | 0.00 | 100 | |
| 20260905001048 | 56 | 22 | 7.0 | 13.0 | 0.00 | 0.00 | 0.00 | 100 | |
| 20260905000848 | 56 | 29 | 9.0 | 14.0 | 0.00 | 0.00 | 0.00 | 100 | |
| 20260905000648 | 56 | 29 | 8.0 | 13.0 | 0.00 | 0.00 | 0.00 | 100 | |
| 20260905000448 | 56 | 14 | 7.0 | 10.0 | 0.00 | 0.00 | 0.00 | 100 | |
| 20260905000248 | 56 | 25 | 7.0 | 12.0 | 0.00 | 0.00 | 0.00 | 100 | |
| 20260905000048 | 56 | 342 | 9.0 | 15.0 | 0.00 | 0.00 | 0.00 | 100 | |
| 20260904235847 | 56 | 0 | 9.0 | 14.0 | 0.00 | 0.00 | 0.00 | 100 | |
| 20260904235647 | 56 | 6 | 10.0 | 16.0 | 0.00 | 0.00 | 0.00 | 100 | |
| 20260904235447 | 57 | 23 | 10.0 | 16.0 | 0.00 | 0.00 | 0.00 | 100 | |
| 20260904235247 | 57 | 358 | 10.0 | 14.0 | 0.00 | 0.00 | 0.00 | 100 | |
| 20260904235045 | 57 | 39 | 11.0 | 17.0 | 0.00 | 0.00 | 0.00 | 100 | |
| 20260904234846 | 57 | 19 | 9.0 | 17.0 | 0.00 | 0.00 | 0.00 | 100 | |
| 20260904234646 | 57 | 29 | 8.0 | 11.0 | 0.00 | 0.00 | 0.00 | 100 | |
| 20260904234446 | 57 | 16 | 8.0 | 12.0 | 0.00 | 0.00 | 0.00 | 100 | |
| 20260904234246 | 57 | 35 | 9.0 | 12.0 | 0.00 | 0.00 | 0.00 | 100 | |
| 20260904234046 | 57 | 40 | 8.0 | 12.0 | 0.00 | 0.00 | 0.00 | 100 | |
| 20260904233846 | 57 | 352 | 9.0 | 11.0 | 0.00 | 0.00 | 0.00 | 100 | |
| 20260904233645 | 57 | 46 | 10.0 | 14.0 | 0.00 | 0.00 | 0.00 | 100 | |
| 20260904233445 | 57 | 46 | 10.0 | 14.0 | 0.00 | 0.00 | 0.00 | 100 | |
| 20260904233245 | 57 | 26 | 8.0 | 13.0 | 0.00 | 0.00 | 0.00 | 100 | |
| 20260904232843 | 58 | 40 | 10.0 | 20.0 | 0.00 | 0.00 | 0.00 | 100 | |
| 20260904232643 | 58 | 357 | 10.0 | 20.0 | 0.00 | 0.00 | 0.00 | 100 | |
| 20260904232443 | 58 | 7 | 10.0 | 16.0 | 0.00 | 0.00 | 0.00 | 100 | |
| 20260904232243 | 59 | 4 | 12.0 | 19.0 | 0.00 | 0.00 | 0.00 | 100 | |
| 20260904232043 | 59 | 17 | 10.0 | 18.0 | 0.00 | 0.00 | 0.00 | 100 | |
| 20260904231843 | 59 | 21 | 11.0 | 16.0 | 0.00 | 0.00 | 0.00 | 100 | |
| 20260904231642 | 59 | 21 | 10.0 | 16.0 | 0.00 | 0.00 | 0.00 | 100 | |
| 20260904231442 | 59 | 16 | 8.0 | 13.0 | 0.00 | 0.00 | 0.00 | 100 | |
| 20260904231242 | 60 | 36 | 8.0 | 13.0 | 0.00 | 0.00 | 0.00 | 100 | |
| 20260904231041 | 60 | 0 | 9.0 | 14.0 | 0.00 | 0.00 | 0.00 | 100 | |
| 20260904230841 | 60 | 353 | 10.0 | 18.0 | 0.00 | 0.00 | 0.00 | 100 | |
| 20260904230641 | 60 | 20 | 8.0 | 18.0 | 0.00 | 0.00 | 0.00 | 100 | |
| 20260904230441 | 61 | 336 | 6.0 | 10.0 | 0.00 | 0.00 | 0.00 | 100 | |
| 20260904230241 | 62 | 308 | 8.0 | 12.0 | 0.00 | 0.00 | 0.00 | 100 | |
| 20260904230041 | 63 | 304 | 8.0 | 16.0 | 0.00 | 0.00 | 0.00 | 100 | |
| 20260904225841 | 64 | 307 | 6.0 | 12.0 | 0.00 | 0.00 | 0.00 | 100 | |
| 20260904225641 | 64 | 291 | 8.0 | 12.0 | 0.00 | 0.00 | 0.00 | 100 | |
| 20260904225440 | 65 | 306 | 6.0 | 11.0 | 0.00 | 0.00 | 0.00 | 100 | |
| 20260904225240 | 66 | 228 | 9.0 | 21.0 | 0.00 | 0.00 | 0.00 | 100 | |
| 20260904225038 | 66 | 202 | 13.0 | 25.0 | 0.00 | 0.00 | 0.00 | 100 | |
| 20260904224838 | 66 | 180 | 11.0 | 25.0 | 0.00 | 0.00 | 0.00 | 100 | |
| 20260904224638 | 66 | 222 | 8.0 | 17.0 | 0.00 | 0.00 | 0.00 | 100 | |
| 20260904224438 | 66 | 123 | 10.0 | 16.0 | 0.00 | 0.00 | 0.00 | 100 | |
| 20260904224238 | 66 | 166 | 13.0 | 23.0 | 0.00 | 0.00 | 0.00 | 100 | |
| 20260904224038 | 65 | 131 | 11.0 | 21.0 | 0.00 | 0.00 | 0.00 | 100 | |
| 20260904223838 | 65 | 138 | 12.0 | 17.0 | 0.00 | 0.00 | 0.00 | 100 | |
| 20260904223638 | 65 | 163 | 13.0 | 20.0 | 0.00 | 0.00 | 0.00 | 100 | |
| 20260904223438 | 65 | 162 | 13.0 | 20.0 | 0.00 | 0.00 | 0.00 | 100 | |
| 20260904223238 | 66 | 141 | 14.0 | 21.0 | 0.00 | 0.00 | 0.00 | 100 | |
| 20260904223036 | 65 | 118 | 12.0 | 20.0 | 0.00 | 0.00 | 0.00 | 100 | |
| 20260904222834 | 65 | 125 | 12.0 | 16.0 | 0.00 | 0.00 | 0.00 | 100 | |
| 20260904222634 | 65 | 172 | 15.0 | 27.0 | 0.00 | 0.00 | 0.00 | 100 | |
| 20260904222434 | 65 | 146 | 13.0 | 22.0 | 0.00 | 0.00 | 0.00 | 100 | |
| 20260904222233 | 65 | 136 | 13.0 | 19.0 | 0.00 | 0.00 | 0.00 | 100 | |
| 20260904222033 | 65 | 110 | 12.0 | 18.0 | 0.00 | 0.00 | 0.00 | 100 | |
| 20260904221833 | 65 | 136 | 12.0 | 23.0 | 0.00 | 0.00 | 0.00 | 100 | |
| 20260904221633 | 65 | 129 | 13.0 | 20.0 | 0.00 | 0.00 | 0.00 | 100 | |
| 20260904221433 | 65 | 128 | 16.0 | 24.0 | 0.00 | 0.00 | 0.00 | 100 | |
| 20260904221233 | 65 | 154 | 13.0 | 20.0 | 0.00 | 0.00 | 0.00 | 100 | |
| 20260904221031 | 65 | 152 | 12.0 | 16.0 | 0.00 | 0.00 | 0.00 | 100 | |
| 20260904220832 | 65 | 123 | 11.0 | 16.0 | 0.00 | 0.00 | 0.00 | 100 | |
| 20260904220632 | 65 | 115 | 12.0 | 21.0 | 0.00 | 0.00 | 0.00 | 100 | |
| 20260904220432 | 65 | 113 | 12.0 | 17.0 | 0.00 | 0.00 | 0.00 | 100 | |
| 20260904220231 | 65 | 130 | 11.0 | 15.0 | 0.00 | 0.00 | 0.00 | 100 | |
| 20260904220031 | 65 | 105 | 11.0 | 17.0 | 0.00 | 0.00 | 0.00 | 100 | |
| 20260904215831 | 65 | 109 | 12.0 | 20.0 | 0.00 | 0.00 | 0.00 | 100 | |
| 20260904215631 | 66 | 129 | 12.0 | 18.0 | 0.00 | 0.00 | 0.00 | 100 | |
| 20260904215431 | 66 | 147 | 13.0 | 18.0 | 0.00 | 0.00 | 0.00 | 100 | |
| 20260904215231 | 66 | 148 | 13.0 | 18.0 | 0.00 | 0.00 | 0.00 | 100 | |
| 20260904215029 | 66 | 113 | 12.0 | 18.0 | 0.00 | 0.00 | 0.00 | 100 | |
| 20260904214829 | 66 | 144 | 12.0 | 21.0 | 0.00 | 0.00 | 0.00 | 100 | |
| 20260904214629 | 66 | 174 | 12.0 | 21.0 | 0.00 | 0.00 | 0.00 | 100 | |
| 20260904214429 | 66 | 150 | 13.0 | 21.0 | 0.00 | 0.00 | 0.00 | 100 | |
| 20260904214229 | 66 | 160 | 13.0 | 22.0 | 0.00 | 0.00 | 0.00 | 100 | |
| 20260904214029 | 66 | 187 | 16.0 | 23.0 | 0.00 | 0.00 | 0.00 | 100 | |
| 20260904213829 | 66 | 163 | 16.0 | 23.0 | 0.00 | 0.00 | 0.00 | 100 | |
| 20260904213630 | 66 | 178 | 16.0 | 22.0 | 0.00 | 0.00 | 0.00 | 100 | |
| 20260904213422 | 66 | 167 | 12.0 | 20.0 | 0.00 | 0.00 | 0.00 | 100 | |
| 20260904213222 | 66 | 132 | 12.0 | 20.0 | 0.00 | 0.00 | 0.00 | 100 | |
| 20260904213020 | 66 | 151 | 14.0 | 20.0 | 0.00 | 0.00 | 0.00 | 100 | |
| 20260904212820 | 66 | 150 | 13.0 | 19.0 | 0.00 | 0.00 | 0.00 | 100 | |
| 20260904212620 | 66 | 153 | 14.0 | 22.0 | 0.00 | 0.00 | 0.00 | 100 | |
| 20260904212420 | 66 | 152 | 16.0 | 25.0 | 0.00 | 0.00 | 0.00 | 100 | |
| 20260904212220 | 66 | 178 | 14.0 | 25.0 | 0.00 | 0.00 | 0.00 | 100 | |
| 20260904212020 | 66 | 128 | 10.0 | 22.0 | 0.00 | 0.00 | 0.00 | 100 | |
| 20260904211820 | 66 | 147 | 12.0 | 23.0 | 0.00 | 0.00 | 0.00 | 100 | |
| 20260904211620 | 66 | 156 | 14.0 | 23.0 | 0.00 | 0.00 | 0.00 | 100 | |
| 20260904211420 | 66 | 119 | 13.0 | 21.0 | 0.00 | 0.00 | 0.00 | 100 | |
| 20260904211220 | 66 | 151 | 14.0 | 20.0 | 0.00 | 0.00 | 0.00 | 100 | |
| 20260904211018 | 66 | 160 | 13.0 | 20.0 | 0.00 | 0.00 | 0.00 | 100 | |
| 20260904210818 | 66 | 135 | 12.0 | 19.0 | 0.00 | 0.00 | 0.00 | 100 | |
| 20260904210618 | 66 | 136 | 13.0 | 25.0 | 0.00 | 0.00 | 0.00 | 100 | |
| 20260904210418 | 66 | 116 | 11.0 | 16.0 | 0.00 | 0.00 | 0.00 | 100 | |
| 20260904210218 | 66 | 119 | 12.0 | 20.0 | 0.00 | 0.00 | 0.00 | 100 | |
| 20260904210018 | 66 | 103 | 12.0 | 20.0 | 0.00 | 0.00 | 0.00 | 100 | |
| 20260904205817 | 66 | 133 | 14.0 | 23.0 | 0.00 | 0.00 | 0.00 | 100 | |
| 20260904205617 | 66 | 160 | 15.0 | 24.0 | 0.00 | 0.00 | 0.00 | 100 | |
| 20260904205417 | 66 | 165 | 13.0 | 22.0 | 0.00 | 0.00 | 0.00 | 100 | |
| 20260904205217 | 66 | 135 | 13.0 | 22.0 | 0.00 | 0.00 | 0.00 | 100 | |
| 20260904205015 | 66 | 139 | 13.0 | 19.0 | 0.00 | 0.00 | 0.00 | 100 | |
| 20260904204815 | 66 | 124 | 12.0 | 21.0 | 0.00 | 0.00 | 0.00 | 100 | |
| 20260904204615 | 66 | 141 | 12.0 | 17.0 | 0.00 | 0.00 | 0.00 | 100 | |
| 20260904204415 | 66 | 151 | 14.0 | 21.0 | 0.00 | 0.00 | 0.00 | 100 | |
| 20260904204215 | 66 | 122 | 13.0 | 23.0 | 0.00 | 0.00 | 0.00 | 100 | |
| 20260904204015 | 66 | 143 | 14.0 | 24.0 | 0.00 | 0.00 | 0.00 | 100 | |
| 20260904203816 | 66 | 167 | 14.0 | 24.0 | 0.00 | 0.00 | 0.00 | 100 | |
| 20260904203615 | 66 | 166 | 14.0 | 26.0 | 0.00 | 0.00 | 0.00 | 100 | |
| 20260904203415 | 66 | 159 | 14.0 | 23.0 | 0.00 | 0.00 | 0.00 | 100 | |
| 20260904203215 | 66 | 150 | 13.0 | 19.0 | 0.00 | 0.00 | 0.00 | 100 | |
| 20260904203013 | 66 | 168 | 15.0 | 26.0 | 0.00 | 0.00 | 0.00 | 100 | |
| 20260904202813 | 66 | 164 | 14.0 | 26.0 | 0.00 | 0.00 | 0.00 | 100 | |
| 20260904202613 | 66 | 153 | 14.0 | 23.0 | 0.00 | 0.00 | 0.00 | 100 | |
| 20260904202413 | 65 | 158 | 14.0 | 24.0 | 0.00 | 0.00 | 0.00 | 100 | |
| 20260904202213 | 65 | 172 | 14.0 | 23.0 | 0.00 | 0.00 | 0.00 | 100 | |
| 20260904202013 | 65 | 158 | 16.0 | 23.0 | 0.00 | 0.00 | 0.00 | 100 | |
| 20260904201813 | 65 | 135 | 14.0 | 20.0 | 0.00 | 0.00 | 0.00 | 100 | |
| 20260904201613 | 65 | 136 | 11.0 | 17.0 | 0.00 | 0.00 | 0.00 | 100 | |
| 20260904201413 | 65 | 131 | 11.0 | 21.0 | 0.00 | 0.00 | 0.00 | 100 | |
| 20260904201213 | 65 | 146 | 12.0 | 19.0 | 0.00 | 0.00 | 0.00 | 100 | |
| 20260904201011 | 65 | 161 | 15.0 | 26.0 | 0.00 | 0.00 | 0.00 | 100 | |
| 20260904200811 | 65 | 154 | 15.0 | 22.0 | 0.00 | 0.00 | 0.00 | 100 | |
| 20260904200611 | 65 | 186 | 15.0 | 27.0 | 0.00 | 0.00 | 0.00 | 100 | |
| 20260904200411 | 64 | 171 | 14.0 | 21.0 | 0.00 | 0.00 | 0.00 | 100 | |
| 20260904200211 | 64 | 158 | 12.0 | 19.0 | 0.00 | 0.00 | 0.00 | 100 | |
| 20260904200011 | 65 | 147 | 12.0 | 19.0 | 0.00 | 0.00 | 0.00 | 100 | |
| 20260904195811 | 64 | 128 | 14.0 | 23.0 | 0.00 | 0.00 | 0.00 | 100 | |
| 20260904195611 | 64 | 137 | 13.0 | 23.0 | 0.00 | 0.00 | 0.00 | 100 | |
| 20260904195411 | 64 | 154 | 12.0 | 19.0 | 0.00 | 0.00 | 0.00 | 100 | |
| 20260904195211 | 64 | 167 | 14.0 | 22.0 | 0.00 | 0.00 | 0.00 | 100 | |
| 20260904195009 | 64 | 173 | 14.0 | 22.0 | 0.00 | 0.00 | 0.00 | 100 | |
| 20260904194809 | 64 | 191 | 12.0 | 18.0 | 0.00 | 0.00 | 0.00 | 100 | |
| 20260904194609 | 64 | 148 | 13.0 | 18.0 | 0.00 | 0.00 | 0.00 | 100 | |
| 20260904194410 | 64 | 114 | 13.0 | 20.0 | 0.00 | 0.00 | 0.00 | 100 | |
| 20260904194210 | 64 | 118 | 12.0 | 16.0 | 0.00 | 0.00 | 0.00 | 100 | |
| 20260904194010 | 64 | 151 | 13.0 | 17.0 | 0.00 | 0.00 | 0.00 | 100 | |
| 20260904193810 | 64 | 177 | 14.0 | 21.0 | 0.00 | 0.00 | 0.00 | 100 | |
| 20260904193610 | 64 | 175 | 14.0 | 24.0 | 0.00 | 0.00 | 0.00 | 100 | |
| 20260904193410 | 64 | 164 | 13.0 | 18.0 | 0.00 | 0.00 | 0.00 | 100 | |
| 20260904193210 | 64 | 156 | 13.0 | 17.0 | 0.00 | 0.00 | 0.00 | 100 | |
| 20260904193008 | 64 | 162 | 12.0 | 17.0 | 0.00 | 0.00 | 0.00 | 100 | |
| 20260904192808 | 64 | 149 | 12.0 | 19.0 | 0.00 | 0.00 | 0.00 | 100 | |
| 20260904192608 | 64 | 136 | 12.0 | 19.0 | 0.00 | 0.00 | 0.00 | 100 | |
| 20260904192408 | 64 | 159 | 13.0 | 26.0 | 0.00 | 0.00 | 0.00 | 100 | |
| 20260904192208 | 64 | 159 | 16.0 | 26.0 | 0.00 | 0.00 | 0.00 | 100 | |
| 20260904192008 | 64 | 153 | 14.0 | 22.0 | 0.00 | 0.00 | 0.00 | 100 | |
| 20260904191808 | 64 | 171 | 12.0 | 22.0 | 0.00 | 0.00 | 0.00 | 100 | |
| 20260904191608 | 64 | 154 | 14.0 | 22.0 | 0.00 | 0.00 | 0.00 | 100 | |
| 20260904191408 | 64 | 144 | 12.0 | 22.0 | 0.00 | 0.00 | 0.00 | 100 | |
| 20260904191208 | 64 | 148 | 11.0 | 18.0 | 0.00 | 0.00 | 0.00 | 100 | |
| 20260904191006 | 64 | 149 | 12.0 | 21.0 | 0.00 | 0.00 | 0.00 | 100 | |
| 20260904190806 | 64 | 143 | 12.0 | 17.0 | 0.00 | 0.00 | 0.00 | 100 | |
| 20260904190606 | 64 | 135 | 13.0 | 22.0 | 0.00 | 0.00 | 0.00 | 100 | |
| 20260904190406 | 64 | 146 | 12.0 | 17.0 | 0.00 | 0.00 | 0.00 | 100 | |
| 20260904190206 | 64 | 147 | 12.0 | 17.0 | 0.00 | 0.00 | 0.00 | 100 | |
| 20260904185957 | 64 | 148 | 12.0 | 16.0 | 0.00 | 0.00 | 0.00 | 100 | |
| 20260904185757 | 64 | 162 | 15.0 | 26.0 | 0.00 | 0.00 | 0.00 | 100 | |
| 20260904185557 | 64 | 138 | 14.0 | 26.0 | 0.00 | 0.00 | 0.00 | 100 | |
| 20260904185357 | 64 | 144 | 13.0 | 22.0 | 0.00 | 0.00 | 0.00 | 100 | |
| 20260904185157 | 64 | 157 | 13.0 | 22.0 | 0.00 | 0.00 | 0.00 | 100 | |
| 20260904184954 | 64 | 145 | 12.0 | 16.0 | 0.00 | 0.00 | 0.00 | 100 | |
| 20260904184754 | 64 | 175 | 13.0 | 20.0 | 0.00 | 0.00 | 0.00 | 100 | |
| 20260904184555 | 64 | 176 | 13.0 | 22.0 | 0.00 | 0.00 | 0.00 | 100 | |
| 20260904184355 | 64 | 153 | 12.0 | 22.0 | 0.00 | 0.00 | 0.00 | 100 | |
| 20260904184155 | 64 | 168 | 12.0 | 21.0 | 0.00 | 0.00 | 0.00 | 100 | |
| 20260904183955 | 64 | 158 | 11.0 | 16.0 | 0.00 | 0.00 | 0.00 | 100 | |
| 20260904183755 | 64 | 155 | 11.0 | 17.0 | 0.00 | 0.00 | 0.00 | 100 | |
| 20260904183555 | 64 | 150 | 12.0 | 17.0 | 0.00 | 0.00 | 0.00 | 100 | |
| 20260904183355 | 64 | 155 | 12.0 | 19.0 | 0.00 | 0.00 | 0.00 | 100 | |
| 20260904183155 | 64 | 149 | 12.0 | 22.0 | 0.00 | 0.00 | 0.00 | 100 | |
| 20260904182952 | 64 | 158 | 13.0 | 22.0 | 0.00 | 0.00 | 0.00 | 100 | |
| 20260904182752 | 64 | 152 | 14.0 | 22.0 | 0.00 | 0.00 | 0.00 | 100 | |
| 20260904182552 | 64 | 145 | 11.0 | 15.0 | 0.00 | 0.00 | 0.00 | 100 | |
| 20260904182352 | 64 | 151 | 13.0 | 22.0 | 0.00 | 0.00 | 0.00 | 100 | |
| 20260904182152 | 64 | 150 | 14.0 | 20.0 | 0.00 | 0.00 | 0.00 | 100 | |
| 20260904181950 | 64 | 160 | 13.0 | 18.0 | 0.00 | 0.00 | 0.00 | 100 | |
| 20260904181750 | 64 | 153 | 12.0 | 16.0 | 0.00 | 0.00 | 0.00 | 100 | |
| 20260904181550 | 64 | 150 | 12.0 | 22.0 | 0.00 | 0.00 | 0.00 | 100 | |
| 20260904181350 | 64 | 145 | 14.0 | 22.0 | 0.00 | 0.00 | 0.00 | 100 | |
| 20260904181150 | 64 | 112 | 11.0 | 16.0 | 0.00 | 0.00 | 0.00 | 100 | |
| 20260904180948 | 64 | 123 | 11.0 | 15.0 | 0.00 | 0.00 | 0.00 | 100 | |
| 20260904180748 | 64 | 151 | 11.0 | 17.0 | 0.00 | 0.00 | 0.00 | 100 | |
| 20260904180548 | 64 | 154 | 11.0 | 18.0 | 0.00 | 0.00 | 0.00 | 100 | |
| 20260904180348 | 63 | 134 | 10.0 | 16.0 | 0.00 | 0.00 | 0.00 | 100 | |
| 20260904180148 | 63 | 103 | 9.0 | 18.0 | 0.00 | 0.00 | 0.00 | 100 | |
| 20260904175948 | 64 | 108 | 10.0 | 18.0 | 0.00 | 0.00 | 0.00 | 100 | |
| 20260904175748 | 64 | 127 | 10.0 | 16.0 | 0.00 | 0.00 | 0.00 | 100 | |
| 20260904175548 | 64 | 118 | 11.0 | 19.0 | 0.00 | 0.00 | 0.00 | 100 | |
| 20260904175348 | 63 | 126 | 10.0 | 19.0 | 0.00 | 0.00 | 0.00 | 100 | |
| 20260904175148 | 64 | 134 | 10.0 | 18.0 | 0.00 | 0.00 | 0.00 | 100 | |
| 20260904174950 | 64 | 108 | 10.0 | 15.0 | 0.00 | 0.00 | 0.00 | 100 | |
| 20260904174746 | 64 | 122 | 11.0 | 15.0 | 0.00 | 0.00 | 0.00 | 100 | |
| 20260904174546 | 64 | 129 | 10.0 | 13.0 | 0.00 | 0.00 | 0.00 | 100 | |
| 20260904174346 | 64 | 130 | 9.0 | 16.0 | 0.00 | 0.00 | 0.00 | 100 | |
| 20260904174146 | 64 | 103 | 10.0 | 16.0 | 0.00 | 0.00 | 0.00 | 100 | |
| 20260904173946 | 64 | 135 | 13.0 | 18.0 | 0.00 | 0.00 | 0.00 | 100 | |
| 20260904173746 | 63 | 167 | 12.0 | 18.0 | 0.00 | 0.00 | 0.00 | 100 | |
| 20260904173546 | 64 | 122 | 11.0 | 17.0 | 0.00 | 0.00 | 0.00 | 100 | |
| 20260904173346 | 64 | 120 | 10.0 | 17.0 | 0.00 | 0.00 | 0.00 | 100 | |
| 20260904173146 | 63 | 136 | 9.0 | 15.0 | 0.00 | 0.00 | 0.00 | 100 | |
| 20260904172944 | 63 | 147 | 9.0 | 13.0 | 0.00 | 0.00 | 0.00 | 100 | |
| 20260904172744 | 63 | 132 | 11.0 | 22.0 | 0.00 | 0.00 | 0.00 | 100 | |
| 20260904172544 | 63 | 144 | 13.0 | 25.0 | 0.00 | 0.00 | 0.00 | 100 | |
| 20260904172344 | 63 | 134 | 12.0 | 25.0 | 0.00 | 0.00 | 0.00 | 100 | |
| 20260904172144 | 63 | 115 | 10.0 | 23.0 | 0.00 | 0.00 | 0.00 | 100 | |
| 20260904171944 | 63 | 108 | 8.0 | 15.0 | 0.00 | 0.00 | 0.00 | 100 | |
| 20260904171744 | 63 | 88 | 8.0 | 15.0 | 0.00 | 0.00 | 0.00 | 100 | |
| 20260904171544 | 63 | 110 | 9.0 | 16.0 | 0.00 | 0.00 | 0.00 | 100 | |
| 20260904171345 | 63 | 111 | 9.0 | 16.0 | 0.00 | 0.00 | 0.00 | 100 | |
| 20260904171145 | 63 | 97 | 9.0 | 16.0 | 0.00 | 0.00 | 0.00 | 100 | |
| 20260904170943 | 63 | 90 | 8.0 | 12.0 | 0.00 | 0.00 | 0.00 | 100 | |
| 20260904170743 | 63 | 90 | 8.0 | 13.0 | 0.00 | 0.00 | 0.00 | 100 | |
| 20260904170543 | 63 | 86 | 9.0 | 12.0 | 0.00 | 0.00 | 0.00 | 100 | |
| 20260904170343 | 63 | 93 | 9.0 | 12.0 | 0.00 | 0.00 | 0.00 | 100 | |
| 20260904170144 | 63 | 106 | 10.0 | 14.0 | 0.00 | 0.00 | 0.00 | 100 | |
| 20260904165943 | 63 | 116 | 9.0 | 13.0 | 0.00 | 0.00 | 0.00 | 100 | |
| 20260904165743 | 63 | 111 | 9.0 | 12.0 | 0.00 | 0.00 | 0.00 | 100 | |
| 20260904165543 | 63 | 117 | 9.0 | 12.0 | 0.00 | 0.00 | 0.00 | 100 | |
| 20260904165343 | 63 | 102 | 9.0 | 14.0 | 0.00 | 0.00 | 0.00 | 100 | |
| 20260904165143 | 63 | 95 | 9.0 | 14.0 | 0.00 | 0.00 | 0.00 | 100 | |
| 20260904164941 | 63 | 132 | 9.0 | 16.0 | 0.00 | 0.00 | 0.00 | 100 | |
| 20260904164741 | 63 | 143 | 10.0 | 17.0 | 0.00 | 0.00 | 0.00 | 100 | |
| 20260904164541 | 63 | 106 | 8.0 | 14.0 | 0.00 | 0.00 | 0.00 | 100 | |
| 20260904164341 | 63 | 92 | 9.0 | 14.0 | 0.00 | 0.00 | 0.00 | 100 | |
| 20260904164141 | 63 | 103 | 9.0 | 11.0 | 0.00 | 0.00 | 0.00 | 100 | |
| 20260904163941 | 63 | 117 | 8.0 | 12.0 | 0.00 | 0.00 | 0.00 | 100 | |
| 20260904163741 | 63 | 128 | 9.0 | 12.0 | 0.00 | 0.00 | 0.00 | 100 | |
| 20260904163541 | 63 | 118 | 8.0 | 11.0 | 0.00 | 0.00 | 0.00 | 100 | |
| 20260904163341 | 64 | 93 | 8.0 | 11.0 | 0.00 | 0.00 | 0.00 | 100 | |
| 20260904163141 | 64 | 154 | 8.0 | 13.0 | 0.00 | 0.00 | 0.00 | 100 | |
| 20260904162939 | 64 | 151 | 8.0 | 13.0 | 0.00 | 0.00 | 0.00 | 100 | |
| 20260904162739 | 64 | 105 | 8.0 | 12.0 | 0.00 | 0.00 | 0.00 | 100 | |
| 20260904162539 | 64 | 104 | 10.0 | 13.0 | 0.00 | 0.00 | 0.00 | 100 | |
| 20260904162332 | 64 | 104 | 8.0 | 11.0 | 0.00 | 0.00 | 0.00 | 100 | |
| 20260904162131 | 64 | 136 | 10.0 | 18.0 | 0.00 | 0.00 | 0.00 | 100 | |
| 20260904161931 | 64 | 141 | 11.0 | 18.0 | 0.00 | 0.00 | 0.00 | 100 | |
| 20260904161731 | 64 | 153 | 9.0 | 14.0 | 0.00 | 0.00 | 0.00 | 100 | |
| 20260904161531 | 64 | 137 | 9.0 | 14.0 | 0.00 | 0.00 | 0.00 | 100 | |
| 20260904161331 | 64 | 142 | 10.0 | 14.0 | 0.00 | 0.00 | 0.00 | 100 | |
| 20260904161133 | 64 | 136 | 10.0 | 18.0 | 0.00 | 0.00 | 0.00 | 100 | |
| 20260904160929 | 64 | 152 | 10.0 | 18.0 | 0.00 | 0.00 | 0.00 | 100 | |
| 20260904160729 | 64 | 146 | 12.0 | 18.0 | 0.00 | 0.00 | 0.00 | 100 | |
| 20260904160530 | 64 | 132 | 11.0 | 18.0 | 0.00 | 0.00 | 0.00 | 100 | |
| 20260904160330 | 64 | 143 | 10.0 | 17.0 | 0.00 | 0.00 | 0.00 | 100 | |
| 20260904160129 | 64 | 183 | 13.0 | 18.0 | 0.00 | 0.00 | 0.00 | 100 | |
| 20260904155929 | 64 | 177 | 12.0 | 19.0 | 0.00 | 0.00 | 0.00 | 100 | |
| 20260904155729 | 64 | 168 | 11.0 | 19.0 | 0.00 | 0.00 | 0.00 | 100 | |
| 20260904155529 | 64 | 145 | 9.0 | 11.0 | 0.00 | 0.00 | 0.00 | 100 | |
| 20260904155329 | 64 | 124 | 9.0 | 14.0 | 0.00 | 0.00 | 0.00 | 100 | |
| 20260904155129 | 65 | 143 | 9.0 | 16.0 | 0.00 | 0.00 | 0.00 | 100 | |
| 20260904154927 | 65 | 130 | 9.0 | 15.0 | 0.00 | 0.00 | 0.00 | 100 | |
| 20260904154727 | 65 | 118 | 8.0 | 13.0 | 0.00 | 0.00 | 0.00 | 100 | |
| 20260904154527 | 65 | 133 | 10.0 | 18.0 | 0.00 | 0.00 | 0.00 | 100 | |
| 20260904154327 | 65 | 158 | 11.0 | 16.0 | 0.00 | 0.00 | 0.00 | 100 | |
| 20260904154127 | 65 | 146 | 11.0 | 16.0 | 0.00 | 0.00 | 0.00 | 100 | |
| 20260904153926 | 65 | 117 | 11.0 | 14.0 | 0.00 | 0.00 | 0.00 | 100 | |
| 20260904153726 | 65 | 146 | 12.0 | 23.0 | 0.00 | 0.00 | 0.00 | 100 | |
| 20260904153526 | 65 | 136 | 11.0 | 18.0 | 0.00 | 0.00 | 0.00 | 100 | |
| 20260904153327 | 65 | 121 | 11.0 | 16.0 | 0.00 | 0.00 | 0.00 | 100 | |
| 20260904153127 | 65 | 127 | 10.0 | 18.0 | 0.00 | 0.00 | 0.00 | 100 | |
| 20260904152925 | 65 | 123 | 8.0 | 11.0 | 0.00 | 0.00 | 0.00 | 100 | |
| 20260904152725 | 65 | 129 | 10.0 | 15.0 | 0.00 | 0.00 | 0.00 | 100 | |
| 20260904152525 | 65 | 133 | 9.0 | 13.0 | 0.00 | 0.00 | 0.00 | 100 | |
| 20260904152325 | 65 | 109 | 8.0 | 10.0 | 0.00 | 0.00 | 0.00 | 100 | |
| 20260904152125 | 65 | 100 | 8.0 | 13.0 | 0.00 | 0.00 | 0.00 | 100 | |
| 20260904151924 | 65 | 129 | 7.0 | 10.0 | 0.00 | 0.00 | 0.00 | 100 | |
| 20260904151724 | 65 | 141 | 9.0 | 15.0 | 0.00 | 0.00 | 0.00 | 100 | |
| 20260904151524 | 65 | 146 | 11.0 | 15.0 | 0.00 | 0.00 | 0.00 | 100 | |
| 20260904151324 | 65 | 136 | 10.0 | 21.0 | 0.00 | 0.00 | 0.00 | 100 | |
| 20260904151124 | 65 | 167 | 10.0 | 21.0 | 0.00 | 0.00 | 0.00 | 100 | |
| 20260904150922 | 65 | 134 | 8.0 | 12.0 | 0.00 | 0.00 | 0.00 | 100 | |
| 20260904150722 | 65 | 135 | 8.0 | 11.0 | 0.00 | 0.00 | 0.00 | 100 | |
| 20260904150522 | 65 | 142 | 8.0 | 13.0 | 0.00 | 0.00 | 0.00 | 100 | |
| 20260904150322 | 65 | 138 | 9.0 | 12.0 | 0.00 | 0.00 | 0.00 | 100 | |
| 20260904150122 | 65 | 130 | 9.0 | 12.0 | 0.00 | 0.00 | 0.00 | 100 | |
| 20260904145922 | 65 | 136 | 10.0 | 17.0 | 0.00 | 0.00 | 0.00 | 100 | |
| 20260904145722 | 65 | 160 | 11.0 | 18.0 | 0.00 | 0.00 | 0.00 | 100 | |
| 20260904145522 | 65 | 137 | 12.0 | 18.0 | 0.00 | 0.00 | 0.00 | 100 | |
| 20260904145122 | 65 | 180 | 12.0 | 17.0 | 0.00 | 0.00 | 0.00 | 100 | |
| 20260904144921 | 64 | 168 | 12.0 | 21.0 | 0.00 | 0.00 | 0.00 | 100 | |
| 20260904144721 | 64 | 113 | 10.0 | 18.0 | 0.00 | 0.00 | 0.00 | 100 | |
| 20260904144521 | 64 | 130 | 9.0 | 15.0 | 0.00 | 0.00 | 0.00 | 100 | |
| 20260904144321 | 64 | 123 | 10.0 | 15.0 | 0.00 | 0.00 | 0.00 | 100 | |
| 20260904144121 | 64 | 132 | 10.0 | 15.0 | 0.00 | 0.00 | 0.00 | 100 | |
| 20260904143921 | 65 | 134 | 10.0 | 16.0 | 0.00 | 0.00 | 0.00 | 100 | |
| 20260904143721 | 65 | 153 | 10.0 | 16.0 | 0.00 | 0.00 | 0.00 | 100 | |
| 20260904143521 | 65 | 136 | 9.0 | 16.0 | 0.00 | 0.00 | 0.00 | 100 | |
| 20260904143321 | 65 | 113 | 9.0 | 14.0 | 0.00 | 0.00 | 0.00 | 100 | |
| 20260904143121 | 65 | 126 | 11.0 | 16.0 | 0.00 | 0.00 | 0.00 | 100 | |
| 20260904142919 | 66 | 125 | 10.0 | 16.0 | 0.00 | 0.00 | 0.00 | 100 | |
| 20260904142719 | 66 | 164 | 12.0 | 20.0 | 0.00 | 0.00 | 0.00 | 100 | |
| 20260904142519 | 66 | 159 | 12.0 | 21.0 | 0.00 | 0.00 | 0.00 | 100 | |
| 20260904142319 | 66 | 138 | 10.0 | 16.0 | 0.00 | 0.00 | 0.00 | 100 | |
| 20260904142119 | 66 | 127 | 10.0 | 17.0 | 0.00 | 0.00 | 0.00 | 100 | |
| 20260904141919 | 66 | 163 | 11.0 | 17.0 | 0.00 | 0.00 | 0.00 | 100 | |
| 20260904141719 | 66 | 146 | 9.0 | 17.0 | 0.00 | 0.00 | 0.00 | 100 | |
| 20260904141519 | 66 | 126 | 11.0 | 21.0 | 0.00 | 0.00 | 0.00 | 100 | |
| 20260904141319 | 66 | 145 | 11.0 | 21.0 | 0.00 | 0.00 | 0.00 | 100 | |
| 20260904141119 | 66 | 128 | 12.0 | 18.0 | 0.00 | 0.00 | 0.00 | 100 | |
| 20260904140917 | 66 | 122 | 11.0 | 17.0 | 0.00 | 0.00 | 0.00 | 100 | |
| 20260904140715 | 66 | 126 | 10.0 | 15.0 | 0.00 | 0.00 | 0.00 | 100 | |
| 20260904140515 | 66 | 189 | 11.0 | 20.0 | 0.00 | 0.00 | 0.00 | 100 | |
| 20260904140315 | 66 | 180 | 10.0 | 20.0 | 0.00 | 0.00 | 0.00 | 100 | |
| 20260904140115 | 66 | 130 | 11.0 | 16.0 | 0.00 | 0.00 | 0.00 | 100 | |
| 20260904135915 | 65 | 134 | 10.0 | 16.0 | 0.00 | 0.00 | 0.00 | 100 | |
| 20260904135715 | 65 | 129 | 9.0 | 14.0 | 0.00 | 0.00 | 0.00 | 100 | |
| 20260904135515 | 65 | 138 | 12.0 | 25.0 | 0.00 | 0.00 | 0.00 | 100 | |
| 20260904135315 | 65 | 144 | 9.0 | 13.0 | 0.00 | 0.00 | 0.00 | 100 | |
| 20260904135115 | 64 | 141 | 9.0 | 16.0 | 0.00 | 0.00 | 0.00 | 100 | |
| 20260904134904 | 64 | 146 | 10.0 | 16.0 | 0.00 | 0.00 | 0.00 | 100 | |
| 20260904134704 | 64 | 144 | 9.0 | 13.0 | 0.00 | 0.00 | 0.00 | 100 | |
| 20260904134504 | 64 | 134 | 8.0 | 13.0 | 0.00 | 0.00 | 0.00 | 100 | |
| 20260904134304 | 64 | 134 | 11.0 | 16.0 | 0.00 | 0.00 | 0.00 | 100 | |
| 20260904134104 | 64 | 170 | 13.0 | 19.0 | 0.00 | 0.00 | 0.00 | 100 | |
| 20260904133904 | 64 | 144 | 13.0 | 19.0 | 0.00 | 0.00 | 0.00 | 100 | |
| 20260904133704 | 64 | 169 | 13.0 | 25.0 | 0.00 | 0.00 | 0.00 | 100 | |
| 20260904133504 | 64 | 131 | 11.0 | 17.0 | 0.00 | 0.00 | 0.00 | 100 | |
| 20260904133305 | 64 | 162 | 12.0 | 17.0 | 0.00 | 0.00 | 0.00 | 100 | |
| 20260904133104 | 63 | 150 | 12.0 | 17.0 | 0.00 | 0.00 | 0.00 | 100 | |
| 20260904132902 | 63 | 153 | 13.0 | 19.0 | 0.00 | 0.00 | 0.00 | 100 | |
| 20260904132702 | 62 | 183 | 13.0 | 18.0 | 0.00 | 0.00 | 0.00 | 100 | |
| 20260904132502 | 62 | 180 | 10.0 | 16.0 | 0.00 | 0.00 | 0.00 | 100 | |
| 20260904132305 | 62 | 110 | 10.0 | 15.0 | 0.00 | 0.00 | 0.00 | 100 | |
| 20260904132101 | 62 | 136 | 11.0 | 15.0 | 0.00 | 0.00 | 0.00 | 100 | |
| 20260904131901 | 62 | 122 | 10.0 | 13.0 | 0.00 | 0.00 | 0.00 | 100 | |
| 20260904131701 | 62 | 122 | 10.0 | 15.0 | 0.00 | 0.00 | 0.00 | 100 | |
| 20260904131501 | 62 | 140 | 10.0 | 15.0 | 0.00 | 0.00 | 0.00 | 100 | |
| 20260904131301 | 62 | 102 | 10.0 | 14.0 | 0.00 | 0.00 | 0.00 | 100 | |
| 20260904131101 | 62 | 143 | 10.0 | 14.0 | 0.00 | 0.00 | 0.00 | 100 | |
| 20260904130859 | 62 | 142 | 10.0 | 14.0 | 0.00 | 0.00 | 0.00 | 100 | |
| 20260904130659 | 62 | 129 | 8.0 | 12.0 | 0.00 | 0.00 | 0.00 | 100 | |
| 20260904130459 | 62 | 126 | 10.0 | 17.0 | 0.00 | 0.00 | 0.00 | 100 | |
| 20260904130300 | 62 | 129 | 8.0 | 11.0 | 0.00 | 0.00 | 0.00 | 100 | |
| 20260904130059 | 62 | 110 | 9.0 | 12.0 | 0.00 | 0.00 | 0.00 | 100 | |
| 20260904125859 | 62 | 153 | 9.0 | 12.0 | 0.00 | 0.00 | 0.00 | 100 | |
| 20260904125659 | 62 | 117 | 8.0 | 13.0 | 0.00 | 0.00 | 0.00 | 100 | |
| 20260904125459 | 63 | 110 | 7.0 | 12.0 | 0.00 | 0.00 | 0.00 | 100 | |
| 20260904125259 | 63 | 129 | 9.0 | 16.0 | 0.00 | 0.00 | 0.00 | 100 | |
| 20260904125059 | 63 | 127 | 9.0 | 16.0 | 0.00 | 0.00 | 0.00 | 100 | |
| 20260904124857 | 63 | 118 | 8.0 | 16.0 | 0.00 | 0.00 | 0.00 | 100 | |
| 20260904124657 | 63 | 118 | 7.0 | 16.0 | 0.00 | 0.00 | 0.00 | 100 | |
| 20260904124457 | 63 | 104 | 8.0 | 13.0 | 0.00 | 0.00 | 0.00 | 100 | |
| 20260904124257 | 63 | 137 | 11.0 | 17.0 | 0.00 | 0.00 | 0.00 | 100 | |
| 20260904124057 | 63 | 138 | 10.0 | 17.0 | 0.00 | 0.00 | 0.00 | 100 | |
| 20260904123856 | 63 | 139 | 8.0 | 13.0 | 0.00 | 0.00 | 0.00 | 100 | |
| 20260904123656 | 63 | 130 | 8.0 | 11.0 | 0.00 | 0.00 | 0.00 | 100 | |
| 20260904123456 | 62 | 116 | 8.0 | 16.0 | 0.00 | 0.00 | 0.00 | 100 | |
| 20260904123256 | 62 | 114 | 10.0 | 16.0 | 0.00 | 0.00 | 0.00 | 100 | |
| 20260904123057 | 61 | 115 | 9.0 | 15.0 | 0.00 | 0.00 | 0.00 | 100 | |
| 20260904122855 | 61 | 118 | 10.0 | 14.0 | 0.00 | 0.00 | 0.00 | 100 | |
| 20260904122655 | 61 | 138 | 8.0 | 12.0 | 0.00 | 0.00 | 0.00 | 100 | |
| 20260904122455 | 61 | 139 | 9.0 | 14.0 | 0.00 | 0.00 | 0.00 | 100 | |
| 20260904122255 | 61 | 141 | 8.0 | 10.0 | 0.00 | 0.00 | 0.00 | 100 | |
| 20260904122055 | 61 | 134 | 9.0 | 15.0 | 0.00 | 0.00 | 0.00 | 100 | |
| 20260904121854 | 61 | 117 | 8.0 | 11.0 | 0.00 | 0.00 | 0.00 | 100 | |
| 20260904121654 | 61 | 140 | 7.0 | 12.0 | 0.00 | 0.00 | 0.00 | 100 | |
| 20260904121454 | 61 | 128 | 7.0 | 12.0 | 0.00 | 0.00 | 0.00 | 100 | |
| 20260904121254 | 61 | 170 | 7.0 | 10.0 | 0.00 | 0.00 | 0.00 | 100 | |
| 20260904121054 | 61 | 143 | 10.0 | 16.0 | 0.00 | 0.00 | 0.00 | 100 | |
| 20260904120852 | 61 | 152 | 11.0 | 16.0 | 0.00 | 0.00 | 0.00 | 100 | |
| 20260904120652 | 61 | 161 | 10.0 | 16.0 | 0.00 | 0.00 | 0.00 | 100 | |
| 20260904120452 | 61 | 150 | 9.0 | 14.0 | 0.00 | 0.00 | 0.00 | 100 | |
| 20260904120252 | 61 | 116 | 10.0 | 16.0 | 0.00 | 0.00 | 0.00 | 100 | |
| 20260904120052 | 61 | 111 | 11.0 | 18.0 | 0.00 | 0.00 | 0.00 | 100 | |
| 20260904115852 | 61 | 155 | 11.0 | 18.0 | 0.00 | 0.00 | 0.00 | 100 | |
| 20260904115652 | 61 | 130 | 12.0 | 20.0 | 0.00 | 0.00 | 0.00 | 100 | |
| 20260904115452 | 61 | 113 | 9.0 | 15.0 | 0.00 | 0.00 | 0.00 | 100 | |
| 20260904115252 | 61 | 133 | 10.0 | 16.0 | 0.00 | 0.00 | 0.00 | 100 | |
| 20260904115052 | 61 | 156 | 9.0 | 13.0 | 0.00 | 0.00 | 0.00 | 100 | |
| 20260904114850 | 61 | 164 | 10.0 | 15.0 | 0.00 | 0.00 | 0.00 | 100 | |
| 20260904114654 | 61 | 138 | 10.0 | 14.0 | 0.00 | 0.00 | 0.00 | 100 | |
| 20260904114450 | 61 | 152 | 10.0 | 16.0 | 0.00 | 0.00 | 0.00 | 100 | |
| 20260904114250 | 61 | 143 | 9.0 | 13.0 | 0.00 | 0.00 | 0.00 | 100 | |
| 20260904114050 | 61 | 140 | 10.0 | 14.0 | 0.00 | 0.00 | 0.00 | 100 | |
| 20260904113850 | 61 | 151 | 9.0 | 14.0 | 0.00 | 0.00 | 0.00 | 100 | |
| 20260904113650 | 61 | 144 | 8.0 | 12.0 | 0.00 | 0.00 | 0.00 | 100 | |
| 20260904113450 | 61 | 104 | 10.0 | 13.0 | 0.00 | 0.00 | 0.00 | 100 | |
| 20260904113250 | 61 | 123 | 9.0 | 12.0 | 0.00 | 0.00 | 0.00 | 100 | |
| 20260904113050 | 61 | 150 | 9.0 | 17.0 | 0.00 | 0.00 | 0.00 | 100 | |
| 20260904112848 | 61 | 82 | 8.0 | 12.0 | 0.00 | 0.00 | 0.00 | 100 | |
| 20260904112648 | 61 | 84 | 8.0 | 14.0 | 0.00 | 0.00 | 0.00 | 100 | |
| 20260904112448 | 61 | 126 | 9.0 | 14.0 | 0.00 | 0.00 | 0.00 | 100 | |
| 20260904112248 | 61 | 144 | 9.0 | 13.0 | 0.00 | 0.00 | 0.00 | 100 | |
| 20260904112048 | 61 | 130 | 8.0 | 12.0 | 0.00 | 0.00 | 0.00 | 100 | |
| 20260904111848 | 61 | 145 | 10.0 | 20.0 | 0.00 | 0.00 | 0.00 | 100 | |
| 20260904111648 | 61 | 120 | 9.0 | 20.0 | 0.00 | 0.00 | 0.00 | 100 | |
| 20260904111448 | 61 | 134 | 9.0 | 14.0 | 0.00 | 0.00 | 0.00 | 100 | |
| 20260904111241 | 61 | 159 | 10.0 | 18.0 | 0.00 | 0.00 | 0.00 | 100 | |
| 20260904111041 | 61 | 151 | 10.0 | 16.0 | 0.00 | 0.00 | 0.00 | 100 | |
| 20260904110839 | 61 | 173 | 9.0 | 18.0 | 0.00 | 0.00 | 0.00 | 100 | |
| 20260904110639 | 62 | 136 | 9.0 | 16.0 | 0.00 | 0.00 | 0.00 | 100 | |
| 20260904110439 | 62 | 110 | 10.0 | 16.0 | 0.00 | 0.00 | 0.00 | 100 | |
| 20260904110239 | 62 | 126 | 9.0 | 13.0 | 0.00 | 0.00 | 0.00 | 100 | |
| 20260904110039 | 63 | 125 | 8.0 | 13.0 | 0.00 | 0.00 | 0.00 | 100 | |
| 20260904105839 | 63 | 143 | 8.0 | 12.0 | 0.00 | 0.00 | 0.00 | 100 | |
| 20260904105639 | 64 | 135 | 10.0 | 16.0 | 0.00 | 0.00 | 0.00 | 100 | |
| 20260904105439 | 64 | 124 | 11.0 | 19.0 | 0.00 | 0.00 | 0.00 | 100 | |
| 20260904105239 | 64 | 141 | 12.0 | 19.0 | 0.00 | 0.00 | 0.00 | 100 | |
| 20260904105039 | 64 | 137 | 9.0 | 13.0 | 0.00 | 0.00 | 0.00 | 100 | |
| 20260904104837 | 64 | 147 | 10.0 | 19.0 | 0.00 | 0.00 | 0.00 | 100 | |
| 20260904104637 | 63 | 159 | 12.0 | 19.0 | 0.00 | 0.00 | 0.00 | 100 | |
| 20260904104437 | 63 | 140 | 10.0 | 15.0 | 0.00 | 0.00 | 0.00 | 100 | |
| 20260904104237 | 63 | 136 | 9.0 | 12.0 | 0.00 | 0.00 | 0.00 | 100 | |
| 20260904104037 | 63 | 137 | 10.0 | 16.0 | 0.00 | 0.00 | 0.00 | 100 | |
| 20260904103837 | 62 | 176 | 10.0 | 20.0 | 0.00 | 0.00 | 0.00 | 100 | |
| 20260904103637 | 62 | 138 | 12.0 | 17.0 | 0.00 | 0.00 | 0.00 | 100 | |
| 20260904103437 | 62 | 139 | 11.0 | 18.0 | 0.00 | 0.00 | 0.00 | 100 | |
| 20260904103237 | 62 | 129 | 11.0 | 18.0 | 0.00 | 0.00 | 0.00 | 100 | |
| 20260904103037 | 62 | 159 | 10.0 | 16.0 | 0.00 | 0.00 | 0.00 | 100 | |
| 20260904102836 | 62 | 161 | 11.0 | 19.0 | 0.00 | 0.00 | 0.00 | 100 | |
| 20260904102636 | 62 | 169 | 10.0 | 17.0 | 0.00 | 0.00 | 0.00 | 100 | |
| 20260904102436 | 62 | 200 | 12.0 | 17.0 | 0.00 | 0.00 | 0.00 | 100 | |
| 20260904102236 | 62 | 153 | 12.0 | 18.0 | 0.00 | 0.00 | 0.00 | 100 | |
| 20260904102036 | 61 | 180 | 12.0 | 24.0 | 0.00 | 0.00 | 0.00 | 100 | |
| 20260904101836 | 61 | 123 | 9.0 | 24.0 | 0.00 | 0.00 | 0.00 | 100 | |
| 20260904101636 | 60 | 130 | 10.0 | 13.0 | 0.00 | 0.00 | 0.00 | 100 | |
| 20260904101436 | 60 | 148 | 10.0 | 20.0 | 0.00 | 0.00 | 0.00 | 100 | |
| 20260904101236 | 60 | 157 | 10.0 | 20.0 | 0.00 | 0.00 | 0.00 | 100 | |
| 20260904101036 | 61 | 118 | 9.0 | 14.0 | 0.00 | 0.00 | 0.00 | 100 | |
| 20260904100834 | 61 | 119 | 8.0 | 15.0 | 0.00 | 0.00 | 0.00 | 100 | |
| 20260904100634 | 60 | 147 | 9.0 | 15.0 | 0.00 | 0.00 | 0.00 | 100 | |
| 20260904100434 | 60 | 152 | 9.0 | 12.0 | 0.00 | 0.00 | 0.00 | 100 | |
| 20260904100234 | 59 | 133 | 8.0 | 13.0 | 0.00 | 0.00 | 0.00 | 100 | |
| 20260904100034 | 59 | 135 | 9.0 | 16.0 | 0.00 | 0.00 | 0.00 | 100 | |
| 20260904095832 | 59 | 153 | 9.0 | 16.0 | 0.00 | 0.00 | 0.00 | 100 | |
| 20260904095632 | 59 | 150 | 10.0 | 19.0 | 0.00 | 0.00 | 0.00 | 100 | |
| 20260904095432 | 59 | 172 | 10.0 | 15.0 | 0.00 | 0.00 | 0.00 | 100 | |
| 20260904095232 | 59 | 115 | 11.0 | 14.0 | 0.00 | 0.00 | 0.00 | 100 | |
| 20260904095032 | 59 | 116 | 10.0 | 13.0 | 0.00 | 0.00 | 0.00 | 100 | |
| 20260904094830 | 59 | 136 | 9.0 | 14.0 | 0.00 | 0.00 | 0.00 | 100 | |
| 20260904094630 | 59 | 125 | 10.0 | 14.0 | 0.00 | 0.00 | 0.00 | 100 | |
| 20260904094430 | 59 | 144 | 12.0 | 18.0 | 0.00 | 0.00 | 0.00 | 100 | |
| 20260904094230 | 59 | 129 | 13.0 | 18.0 | 0.00 | 0.00 | 0.00 | 100 | |
| 20260904094030 | 59 | 174 | 14.0 | 19.0 | 0.00 | 0.00 | 0.00 | 100 | |
| 20260904093830 | 59 | 173 | 14.0 | 19.0 | 0.00 | 0.00 | 0.00 | 100 | |
| 20260904093630 | 59 | 135 | 12.0 | 22.0 | 0.00 | 0.00 | 0.00 | 100 | |
| 20260904093430 | 59 | 150 | 10.0 | 20.0 | 0.00 | 0.00 | 0.00 | 100 | |
| 20260904093230 | 59 | 145 | 10.0 | 15.0 | 0.00 | 0.00 | 0.00 | 100 | |
| 20260904093031 | 59 | 157 | 12.0 | 16.0 | 0.00 | 0.00 | 0.00 | 100 | |
| 20260904092829 | 58 | 140 | 11.0 | 17.0 | 0.00 | 0.00 | 0.00 | 100 | |
| 20260904092629 | 58 | 136 | 10.0 | 17.0 | 0.00 | 0.00 | 0.00 | 100 | |
| 20260904092429 | 58 | 153 | 12.0 | 17.0 | 0.00 | 0.00 | 0.00 | 100 | |
| 20260904092229 | 58 | 128 | 11.0 | 17.0 | 0.00 | 0.00 | 0.00 | 100 | |
| 20260904092029 | 57 | 110 | 11.0 | 16.0 | 0.00 | 0.00 | 0.00 | 100 | |
| 20260904091829 | 57 | 122 | 10.0 | 15.0 | 0.00 | 0.00 | 0.00 | 100 | |
| 20260904091629 | 57 | 139 | 11.0 | 18.0 | 0.00 | 0.00 | 0.00 | 100 | |
| 20260904091429 | 57 | 157 | 10.0 | 18.0 | 0.00 | 0.00 | 0.00 | 100 | |
| 20260904091229 | 58 | 180 | 12.0 | 18.0 | 0.00 | 0.00 | 0.00 | 100 | |
| 20260904091029 | 58 | 128 | 11.0 | 18.0 | 0.00 | 0.00 | 0.00 | 100 | |
| 20260904090827 | 58 | 149 | 10.0 | 15.0 | 0.00 | 0.00 | 0.00 | 100 | |
| 20260904090627 | 58 | 159 | 11.0 | 18.0 | 0.00 | 0.00 | 0.00 | 100 | |
| 20260904090427 | 58 | 113 | 10.0 | 15.0 | 0.00 | 0.00 | 0.00 | 100 | |
| 20260904090227 | 58 | 91 | 10.0 | 15.0 | 0.00 | 0.00 | 0.00 | 100 | |
| 20260904090027 | 58 | 123 | 10.0 | 15.0 | 0.00 | 0.00 | 0.00 | 100 | |
| 20260904085827 | 58 | 136 | 10.0 | 16.0 | 0.00 | 0.00 | 0.00 | 100 | |
| 20260904085627 | 58 | 140 | 9.0 | 16.0 | 0.00 | 0.00 | 0.00 | 100 | |
| 20260904085427 | 58 | 158 | 11.0 | 16.0 | 0.00 | 0.00 | 0.00 | 100 | |
| 20260904085227 | 58 | 118 | 9.0 | 14.0 | 0.00 | 0.00 | 0.00 | 100 | |
| 20260904085027 | 58 | 98 | 10.0 | 13.0 | 0.00 | 0.00 | 0.00 | 100 | |
| 20260904084825 | 58 | 175 | 10.0 | 14.0 | 0.00 | 0.00 | 0.00 | 100 | |
| 20260904084625 | 58 | 150 | 8.0 | 14.0 | 0.00 | 0.00 | 0.00 | 100 | |
| 20260904084425 | 57 | 141 | 9.0 | 14.0 | 0.00 | 0.00 | 0.00 | 100 | |
| 20260904084225 | 57 | 129 | 9.0 | 13.0 | 0.00 | 0.00 | 0.00 | 100 | |
| 20260904084025 | 57 | 136 | 8.0 | 12.0 | 0.00 | 0.00 | 0.00 | 100 | |
| 20260904083816 | 57 | 102 | 8.0 | 12.0 | 0.00 | 0.00 | 0.00 | 100 | |
| 20260904083616 | 57 | 84 | 8.0 | 12.0 | 0.00 | 0.00 | 0.00 | 100 | |
| 20260904083416 | 57 | 131 | 9.0 | 13.0 | 0.00 | 0.00 | 0.00 | 100 | |
| 20260904083216 | 57 | 108 | 10.0 | 16.0 | 0.00 | 0.00 | 0.00 | 100 | |
| 20260904083016 | 57 | 143 | 7.0 | 13.0 | 0.00 | 0.00 | 0.00 | 100 | |
| 20260904082814 | 57 | 135 | 8.0 | 13.0 | 0.00 | 0.00 | 0.00 | 100 | |
| 20260904082614 | 57 | 110 | 8.0 | 12.0 | 0.00 | 0.00 | 0.00 | 100 | |
| 20260904082414 | 57 | 159 | 7.0 | 12.0 | 0.00 | 0.00 | 0.00 | 100 | |
| 20260904082214 | 57 | 121 | 6.0 | 10.0 | 0.00 | 0.00 | 0.00 | 100 | |
| 20260904082014 | 57 | 100 | 9.0 | 12.0 | 0.00 | 0.00 | 0.00 | 100 |